SB KEPS @ AMSAT $ORB07319.N 2Line Orbital Elements 07319.AMSAT
HR AMSAT ORBITAL ELEMENTS FOR AMATEUR SATELLITES IN NASA FORMAT FROM WA5QGD FORT WORTH,TX November 15, 2007 Send Subscribe/unsubscribe to KEPS at http://www.amsat.org/mailman/listinfo/keps BID: ORB07319.N
DECODE 2-LINE ELSETS WITH THE FOLLOWING KEY: 1 AAAAAU 00 0 0 BBBBB.BBBBBBBB .CCCCCCCC 00000-0 00000-0 0 DDDZ 2 AAAAA EEE.EEEE FFF.FFFF GGGGGGG HHH.HHHH III.IIII JJ.JJJJJJJJKKKKKZ KEY: A-CATALOGNUM B-EPOCHTIME C-DECAY D-ELSETNUM E-INCLINATION F-RAAN G-ECCENTRICITY H-ARGPERIGEE I-MNANOM J-MNMOTION K-ORBITNUM Z-CHECKSUM
TO ALL RADIO AMATEURS BT
AO-07 1 07530U 74089B 07318.65651635 -.00000028 00000-0 10000-3 0 276 2 07530 101.4972 352.1389 0011941 323.4492 036.5763 12.53572821509971 AO-10 1 14129U 83058B 07318.13652737 -.00000085 00000-0 10000-3 0 4425 2 14129 026.0018 246.1245 6050450 072.9878 342.1274 02.05869589183659 UO-11 1 14781U 84021B 07319.54162773 .00000101 00000-0 20815-4 0 5214 2 14781 098.1776 345.0795 0009919 048.5083 311.6955 14.79593869272114 RS-15 1 23439U 94085A 07318.93618839 -.00000039 00000-0 10000-3 0 01060 2 23439 064.8132 123.1317 0154642 163.4281 197.1776 11.27552978530690 FO-29 1 24278U 96046B 07319.80778585 .00000031 00000-0 66185-4 0 6379 2 24278 098.5730 259.2242 0351269 050.6012 312.5684 13.52933964555406 SO-33 1 25509U 98061B 07318.55029776 .00000131 00000-0 12829-4 0 00650 2 25509 031.4316 095.5979 0355484 301.7974 054.8493 14.28184277472768 AO-40 1 26609U 00072B 07316.43806886 -.00000031 00000-0 10000-3 0 09687 2 26609 006.9517 111.5089 7936064 022.4583 358.2921 01.25585023032306 VO-52 1 28650U 05017B 07318.73929766 -.00000188 00000-0 -17214-4 0 7785 2 28650 097.8166 025.9627 0028099 121.7480 238.6481 14.81379639136702 PO-63 1 29712U 07001D 07319.77552340 .00000571 00000-0 82548-4 0 9154 2 29712 097.9058 016.7088 0014263 003.0333 357.0954 14.79896038 45758 AO-16 1 20439U 90005D 07319.59928040 .00000003 00000-0 16215-4 0 1803 2 20439 098.2088 305.9133 0011903 094.3453 265.9088 14.31775533930213 LO-19 1 20442U 90005G 07318.98357056 -.00000047 00000-0 -24288-5 0 01048 2 20442 098.1868 314.4290 0012970 095.5218 264.7445 14.32014826930270 AO-27 1 22825U 93061C 07319.55672518 .00000117 00000-0 62313-4 0 8275 2 22825 098.3549 283.0000 0008544 168.8377 191.2998 14.29222911737114 IO-26 1 22826U 93061D 07318.45801676 -.00000018 00000-0 94003-5 0 05284 2 22826 098.3464 282.9545 0008829 169.2746 190.8626 14.29469340737048 PO-28 1 22829U 93061G 07318.90010849 -.00000014 00000-0 10524-4 0 08027 2 22829 098.3352 284.5207 0010176 141.6460 218.5440 14.30171649737355 GO-32 1 25397U 98043D 07319.67329005 -.00000122 00000-0 -35548-4 0 4511 2 25397 098.3941 000.1081 0001837 117.8548 242.2835 14.23133134485700 MO-46 1 26548U 00057D 07319.42215396 -.00000022 00000-0 14965-4 0 9487 2 26548 064.5571 074.7790 0003140 350.3801 009.7235 14.83194802385964 NO-44 1 26931U 01043C 07319.77392222 -.00000157 00000-0 -29184-4 0 7321 2 26931 067.0491 117.0025 0005510 250.8851 109.1608 14.29501612319768 SO-50 1 27607U 02058C 07318.54411406 .00000045 00000-0 29055-4 0 4552 2 27607 064.5597 348.5020 0071587 323.1840 036.4348 14.71301050263248 CO-55 1 27844U 03031E 07318.69652896 .00000055 00000-0 45719-4 0 1668 2 27844 098.7192 324.9499 0010397 021.7968 338.3656 14.20542570226842 CO-57 1 27848U 03031J 07318.52516148 .00000054 00000-0 45592-4 0 01234 2 27848 098.7186 323.9280 0010179 025.8054 334.3629 14.20357618226792 AO-51 1 28375U 04025K 07318.59581773 .00000020 00000-0 18437-4 0 09607 2 28375 098.0956 350.0388 0084986 086.2428 274.8474 14.40586534177366 CO-56 1 28941U 06005C 07318.87731409 .00023000 24165-5 21134-3 0 6453 2 28941 098.1140 037.2614 0205297 097.0819 265.3817 15.45901648 96663 HO-59 1 29484U 06041F 07319.72848398 .00053778 32912-5 28215-3 0 8584 2 29484 098.2627 033.7448 0164614 077.7852 284.1523 15.63890350 64656 NO-61 1 29664U 06055F 07319.58314631 .00137275 20394-4 15770-3 0 6553 2 29664 051.6267 007.0014 0002588 279.6667 080.4076 16.08659920 52361 CP4 1 31122U 07012F 07318.85886031 .00000548 00000-0 13192-3 0 01872 2 31122 098.0738 027.1533 0084646 277.4504 081.7026 14.55050688030766 CP3 1 31128U 07012M 07318.83749685 -.00000049 00000-0 00000-0 0 01811 2 31128 098.0677 026.0743 0102014 280.7624 078.2108 14.51882155030686 LIBERT 1 31129U 07012N 07319.65162440 .00000336 00000-0 89029-4 0 5196 2 31129 098.0691 026.8777 0101287 278.0369 080.9342 14.51975078 30783 NOAA-10 1 16969U 86073A 07318.59851902 -.00000042 00000-0 92171-6 0 08906 2 16969 098.7386 335.8299 0013182 089.0336 271.2355 14.27340345100680 NOAA-11 1 19531U 88089A 07318.76168630 -.00000232 00000-0 -97352-4 0 09201 2 19531 098.8090 046.0242 0011274 326.0700 033.9748 14.14854284987443 NOAA-12 1 21263U 91032A 07318.79018371 .00000039 00000-0 35483-4 0 04279 2 21263 098.7618 315.8451 0012861 034.9911 325.2080 14.25502334857703 MET-3/5 1 21655U 91056A 07319.04786109 .00000051 00000-0 10000-3 0 03865 2 21655 082.5521 256.3444 0012284 186.8858 173.2094 13.17013182781260 MET-2/21 1 22782U 93055A 07318.92881474 -.00000049 00000-0 -57657-4 0 09871 2 22782 082.5453 282.3229 0022522 169.6088 190.5547 13.83619993717366 OKEAN-4 1 23317U 94066A 07318.75923489 .00000128 00000-0 12783-4 0 04257 2 23317 082.5360 156.0737 0023894 115.2637 245.1001 14.82549335706361 NOAA-14 1 23455U 94089A 07318.75825977 -.00000062 00000-0 -87851-5 0 08980 2 23455 098.9742 025.6203 0009875 038.9453 321.2435 14.13728234663919 SICH-1 1 23657U 95046A 07318.76844996 -.00000013 00000-0 -47942-5 0 02269 2 23657 082.5253 297.0041 0025771 107.1120 253.2913 14.81524560658322 NOAA-15 1 25338U 98030A 07319.03015340 .00000031 00000-0 31818-4 0 02416 2 25338 098.5418 311.5429 0009913 313.4006 046.6384 14.24672004494167 RESURS 1 25394U 98043A 07319.05167921 -.00000019 00000-0 96451-5 0 08011 2 25394 098.4189 007.4585 0002239 092.2870 267.8567 14.24148459485827 FENGYUN1 1 25730U 99025A 07319.04592787 .00000112 00000-0 91052-4 0 03016 2 25730 098.7059 297.3123 0020852 054.9065 305.4050 14.07640600438695 OKEAN-0 1 25860U 99039A 07318.51292524 .00000043 00000-0 13758-4 0 02123 2 25860 097.7377 313.8000 0000490 077.0395 283.0865 14.73484410447634 NOAA-16 1 26536U 00055A 07318.79183860 .00000200 00000-0 13345-3 0 06834 2 26536 099.1368 298.4942 0011307 109.2166 251.0216 14.12458522368362 NOAA-17 1 27453U 02032A 07318.75444410 -.00000074 00000-0 -13650-4 0 06793 2 27453 098.5648 024.3246 0011854 020.8534 339.3124 14.23923757280148 NOAA-18 1 28654U 05018A 07318.78805805 -.00000143 00000-0 -55031-4 0 01988 2 28654 098.8451 257.6353 0013835 199.8074 160.2553 14.11109883128099 HUBBLE 1 20580U 90037B 07319.01678268 .00000339 00000-0 13404-4 0 00129 2 20580 028.4697 286.5391 0003697 253.2390 106.7805 15.00302054762637 UARS 1 21701U 91063B 07318.66371597 .00003797 00000-0 64103-4 0 02271 2 21701 056.9748 020.2945 0094882 121.4926 239.5446 15.49607991889065 PO-34 1 25520U 98064B 07319.68143424 .00000486 00000-0 14199-4 0 8662 2 25520 028.4595 174.7597 0005529 109.8330 250.2837 15.17082085500553 ISS 1 25544U 98067A 07319.73243174 .00021054 00000-0 13502-3 0 3531 2 25544 051.6416 042.5430 0001763 169.8667 274.9329 15.76229342514684 OO-38 1 26063U 00004C 07319.52506668 -.00000008 00000-0 17409-4 0 602 2 26063 100.2210 350.0810 0037315 094.1553 266.3897 14.35819965408765 UWE-1 1 28892U 05043C 07318.69132733 .00000176 00000-0 46596-4 0 8980 2 28892 098.1126 212.1951 0017595 005.8871 354.2536 14.59560658109169 CO-58 1 28895U 05043F 07318.73395913 .00000024 00000-0 14779-4 0 08743 2 28895 098.1157 212.5073 0018217 005.7266 354.4161 14.59603005109052 NCUBE2 1 28897U 05043H 07319.61439652 .00000136 00000-0 38202-4 0 4020 2 28897 098.1149 213.3140 0017675 004.4294 355.7064 14.59769516101466 FCAL 1 29667U 06055J 07319.57496833 .00030199 11594-4 85529-4 0 5008 2 29667 051.6329 017.0496 0009155 221.5657 138.4660 15.94682204 52100 FALCON 1 30776U 07006E 07318.53741011 .00000203 00000-0 17976-4 0 01943 2 30776 035.4341 021.1627 0002019 322.7322 037.3254 15.02799524037689 MAST 1 31126U 07012K 07318.89460469 -.00000107 00000-0 -13334-4 0 01853 2 31126 098.0676 026.6256 0093795 279.0953 079.9603 14.53375267030747 CAPE1 1 31130U 07012P 07319.24827694 -.00000005 00000-0 10205-4 0 1642 2 31130 098.0688 026.4728 0101902 279.4127 079.5501 14.51901013 30536 /EX
participants (1)
-
Ray Hoad